Tracking 18987 objects as of 25-Feb-2018
HD Live streaming from Space Station
objects crossing your sky now

FENGYUN 1C DEB

Track FENGYUN 1C DEB now!
10-day predictions


NORAD ID: 32234
Int'l Code: 1999-025CWG
Perigee: 841.4 km
Apogee: 1,056.2 km
Inclination: 98.6 °
Period: 103.9 minutes
Semi major axis: 7319 km
RCS: 0.0048 m2 (small)
Launch date: May 10, 1999
Source: People's Republic of China (PRC)
Launch site: Taiyaun Space Center, China (TSC)

Note: This is SATELLITE DEBRIS
aabbcc
Your satellite tracking list
Your tracking list is empty




NASA's NSSDC Master Catalog

Two Line Element Set (TLE):
1 32234U 99025CWG 18056.08207572  .00000435  00000-0  37720-3 0  9994
2 32234  98.5522  99.4527 0146703 239.3309 119.3321 13.86296815538446
Source of the keplerian elements: AFSPC